DW2770 Weather Reports


Display with metric or nautical units.
time (UTC)temp
F
wind
direction
speed
MPH
gust
MPH
rain 1hr
in
rain 24hr
in
rain mn
in
humidity
%
barometer
mb
20260504194521 62 155 0.0 0.0 0.00 0.00 0.00 70 1017.9
20260504193025 62 161 0.0 0.0 0.00 0.00 0.00 68 1017.9
20260504191525 62 106 0.0 0.0 0.00 0.00 0.00 70 1017.9
20260504190016 63 100 0.0 3.0 0.00 0.00 0.00 73 1017.8
20260504184519 63 117 1.0 3.0 0.00 0.00 0.00 74 1017.6
20260504183026 63 82 2.0 6.0 0.00 0.00 0.00 74 1017.5
20260504181526 63 125 1.0 4.0 0.00 0.00 0.00 74 1017.5
20260504180025 63 89 2.0 6.0 0.00 0.00 0.00 73 1017.5
20260504174516 63 123 2.0 6.0 0.00 0.00 0.00 73 1017.5
20260504173020 64 88 2.0 6.0 0.00 0.00 0.00 72 1017.3
20260504171535 64 75 2.0 6.0 0.00 0.00 0.00 72 1017.1
20260504081529 64 78 2.0 8.0 0.00 0.00 0.00 64 1019.5
20260504050008 58 231 1.0 3.0 0.00 0.00 0.00 60 1019.2
20260504044514 57 193 1.0 4.0 0.00 0.00 0.00 60 1018.9
20260504043017 56 187 1.0 5.0 0.00 0.00 0.00 61 1018.7
20260504041520 56 187 0.0 4.0 0.00 0.00 0.00 61 1018.6
20260504040007 56 157 0.0 3.0 0.00 0.00 0.00 61 1018.5
20260504034508 57 213 0.0 4.0 0.00 0.00 0.00 60 1018.4
20260504033016 57 200 3.0 7.0 0.00 0.00 0.00 60 1018.5
20260504031519 57 186 2.0 6.0 0.00 0.00 0.00 60 1018.5
20260504030033 57 194 0.0 5.0 0.00 0.00 0.00 61 1018.6
20260504024509 57 190 1.0 5.0 0.00 0.00 0.00 61 1018.6
20260504023011 57 189 1.0 8.0 0.00 0.00 0.00 62 1018.8
20260504021517 57 198 4.0 8.0 0.00 0.00 0.00 62 1018.8
20260504020022 57 206 3.0 7.0 0.00 0.00 0.00 63 1018.9
20260504014523 57 175 3.0 7.0 0.00 0.00 0.00 65 1018.9
20260504013010 57 191 4.0 8.0 0.00 0.00 0.00 66 1018.8
20260504011511 57 190 3.0 7.0 0.00 0.00 0.00 69 1018.8
20260504010003 57 194 2.0 6.0 0.00 0.00 0.00 68 1018.8
20260504004506 58 196 2.0 6.0 0.00 0.00 0.00 67 1018.8
20260504003006 58 213 3.0 7.0 0.00 0.00 0.00 67 1018.9
20260504001512 56 203 2.0 4.0 0.00 0.00 0.00 69 1018.9
20260504000004 56 185 2.0 4.0 0.00 0.00 0.00 68 1018.9
20260503234505 56 192 4.0 6.0 0.00 0.00 0.00 67 1018.9
20260503233005 57 182 4.0 8.0 0.00 0.00 0.00 65 1019.1
20260503231508 57 213 3.0 9.0 0.00 0.00 0.00 65 1019.2
20260503230012 57 196 3.0 6.0 0.00 0.00 0.00 64 1019.3
20260503224503 58 186 2.0 8.0 0.00 0.00 0.00 62 1019.5
20260503223004 58 192 4.0 8.0 0.00 0.00 0.00 62 1019.6
20260503221508 58 173 1.0 5.0 0.00 0.00 0.00 62 1019.7
20260503220029 58 200 4.0 7.0 0.00 0.00 0.00 60 1019.6
20260503214514 58 208 3.0 6.0 0.00 0.00 0.00 59 1019.5
20260503213008 58 193 2.0 6.0 0.00 0.00 0.00 59 1019.5
20260503211505 58 188 1.0 5.0 0.00 0.00 0.00 58 1019.5
20260503210008 59 212 2.0 4.0 0.00 0.00 0.00 58 1019.6
20260503204514 59 234 1.0 4.0 0.00 0.00 0.00 55 1019.6
20260503203028 59 146 0.0 1.0 0.00 0.00 0.00 55 1019.2
20260503201505 59 178 0.0 3.0 0.00 0.00 0.00 55 1019.2
20260503200004 59 182 0.0 5.0 0.00 0.00 0.00 53 1019.4